This is the latest recevied weather packets stored in our database for station/object KD8BMB. If no packets are shown the sender has not sent any weather packets the latest 10 day(s).
| Time | Temp. | Humidity | Pressure | Rain* | Wind** | Luminosity | Snow |
|---|---|---|---|---|---|---|---|
| 1777858669 | 11.67° C | 66% | 1007.1 hPa | 0 mm | - | 0 W/m² | - |
| 1777858367 | 11.67° C | 65% | 1007.3 hPa | 0 mm | - | 0 W/m² | - |
| 1777858063 | 12.22° C | 65% | 1007.5 hPa | 0 mm | - | 0 W/m² | - |
| 1777857761 | 12.22° C | 66% | 1007.4 hPa | 0 mm | - | 0 W/m² | - |
| 1777857458 | 12.22° C | 65% | 1007.3 hPa | 0 mm | - | 0 W/m² | - |
| 1777857155 | 12.22° C | 65% | 1007.5 hPa | 0 mm | - | 0 W/m² | - |
| 1777856851 | 12.22° C | 64% | 1007.4 hPa | 0 mm | - | 0 W/m² | - |
| 1777856546 | 12.22° C | 64% | 1007.6 hPa | 0 mm | - | 0 W/m² | - |
| 1777856243 | 12.78° C | 64% | 1007.5 hPa | 0 mm | - | 0 W/m² | - |
| 1777855940 | 12.78° C | 64% | 1007.4 hPa | 0 mm | - | 0 W/m² | - |
| 1777855638 | 12.78° C | 64% | 1007.5 hPa | 0 mm | - | 0 W/m² | - |
| 1777855335 | 12.78° C | 64% | 1007.5 hPa | 0 mm | - | 0 W/m² | - |
| 1777855032 | 12.78° C | 64% | 1007.5 hPa | 0 mm | - | 0 W/m² | - |
| 1777854728 | 12.78° C | 64% | 1007.6 hPa | 0 mm | - | 3 W/m² | - |
| 1777854425 | 12.78° C | 63% | 1007.6 hPa | 0 mm | - | 4 W/m² | - |
| 1777854123 | 12.78° C | 62% | 1007.6 hPa | 0 mm | - | 8 W/m² | - |
| 1777853821 | 12.78° C | 61% | 1007.6 hPa | 0 mm | - | 11 W/m² | - |
| 1777853517 | 13.33° C | 60% | 1007.5 hPa | 0 mm | - | 14 W/m² | - |
| 1777853214 | 13.33° C | 59% | 1007.6 hPa | 0 mm | - | 17 W/m² | - |
| 1777852911 | 13.89° C | 58% | 1007.6 hPa | 0 mm | - | 22 W/m² | - |
| 1777852609 | 13.89° C | 58% | 1007.5 hPa | 0 mm | - | 29 W/m² | - |
| 1777852306 | 14.44° C | 57% | 1007.3 hPa | 0 mm | - | 43 W/m² | - |
| 1777852004 | 14.44° C | 56% | 1007.5 hPa | 0 mm | - | 52 W/m² | - |
| 1777851702 | 14.44° C | 56% | 1007.4 hPa | 0 mm | - | 47 W/m² | - |
| 1777851398 | 14.44° C | 55% | 1007.3 hPa | 0 mm | - | 49 W/m² | - |
* Rain latest hour (hover to see other rain measurements)
** Current wind speed in m/s (hover to see current wind gust speed)